| time (UTC) | temp F | wind direction | speed MPH | gust MPH | rain 1hr in | rain 24hr in | rain mn in | humidity % | barometer mb |
| 20260510050026 | 37 | 140 | 0.0 | 0.0 | 0.00 | 0.04 | 0.00 | 94 | 1012.5 |
| 20260510044523 | 37 | 280 | 0.0 | 3.0 | 0.00 | 0.06 | 0.00 | 94 | 1012.8 |
| 20260510043037 | 37 | 123 | 1.0 | 2.0 | 0.00 | 0.06 | 0.00 | 94 | 1012.8 |
| 20260510041526 | 37 | 113 | 0.0 | 3.0 | 0.00 | 0.06 | 0.00 | 93 | 1012.8 |
| 20260510040032 | 37 | 9 | 0.0 | 2.0 | 0.00 | 0.06 | 0.00 | 93 | 1012.9 |
| 20260510034516 | 37 | 342 | 0.0 | 2.0 | 0.00 | 0.06 | 0.00 | 93 | 1013.0 |
| 20260510033013 | 37 | 88 | 1.0 | 4.0 | 0.00 | 0.06 | 0.00 | 93 | 1013.0 |
| 20260510031515 | 37 | 157 | 0.0 | 0.0 | 0.00 | 0.06 | 0.00 | 93 | 1013.2 |
| 20260510030010 | 37 | 271 | 0.0 | 1.0 | 0.00 | 0.06 | 0.00 | 93 | 1013.2 |
| 20260510024508 | 38 | 59 | 0.0 | 2.0 | 0.00 | 0.09 | 0.00 | 93 | 1013.3 |
| 20260510023007 | 38 | 86 | 0.0 | 0.0 | 0.00 | 0.09 | 0.00 | 93 | 1013.4 |
| 20260510021519 | 39 | 272 | 0.0 | 2.0 | 0.00 | 0.09 | 0.00 | 93 | 1013.4 |
| 20260510014503 | 39 | 229 | 0.0 | 0.0 | 0.00 | 0.09 | 0.00 | 93 | 1013.4 |
| 20260510013001 | 40 | 134 | 0.0 | 0.0 | 0.00 | 0.09 | 0.00 | 93 | 1013.4 |
| 20260510011601 | 40 | 38 | 0.0 | 4.0 | 0.00 | 0.09 | 0.00 | 93 | 1013.4 |
| 20260510004601 | 39 | 67 | 0.0 | 3.0 | 0.00 | 0.09 | 0.00 | 92 | 1013.4 |
| 20260510003057 | 40 | 132 | 0.0 | 1.0 | 0.00 | 0.09 | 0.00 | 92 | 1013.5 |
| 20260510001554 | 40 | 74 | 0.0 | 1.0 | 0.00 | 0.09 | 0.00 | 91 | 1013.5 |
| 20260510000058 | 40 | 360 | 0.0 | 3.0 | 0.00 | 0.09 | 0.00 | 91 | 1013.8 |
| 20260509234551 | 40 | 136 | 0.0 | 2.0 | 0.00 | 0.09 | 0.00 | 91 | 1014.0 |
| 20260509233048 | 41 | 64 | 0.0 | 0.0 | 0.00 | 0.09 | 0.00 | 91 | 1014.4 |
| 20260509231546 | 41 | 185 | 0.0 | 2.0 | 0.00 | 0.09 | 0.00 | 91 | 1014.5 |
| 20260509230044 | 41 | 162 | 0.0 | 2.0 | 0.00 | 0.09 | 0.00 | 90 | 1014.5 |
| 20260509224543 | 42 | 267 | 0.0 | 0.0 | 0.00 | 0.09 | 0.00 | 89 | 1014.6 |
| 20260509223041 | 43 | 154 | 0.0 | 1.0 | 0.00 | 0.09 | 0.00 | 90 | 1014.6 |
| 20260509221539 | 43 | 200 | 0.0 | 2.0 | 0.00 | 0.09 | 0.00 | 89 | 1014.6 |
| 20260509220037 | 43 | 150 | 0.0 | 0.0 | 0.00 | 0.09 | 0.00 | 88 | 1014.7 |
| 20260509214547 | 44 | 101 | 0.0 | 0.0 | 0.00 | 0.09 | 0.09 | 89 | 1014.7 |
| 20260509213037 | 45 | 101 | 0.0 | 0.0 | 0.00 | 0.09 | 0.09 | 89 | 1014.7 |
| 20260509211536 | 45 | 97 | 1.0 | 3.0 | 0.00 | 0.09 | 0.09 | 88 | 1014.7 |
| 20260509210039 | 46 | 207 | 0.0 | 0.0 | 0.00 | 0.09 | 0.09 | 88 | 1014.7 |
| 20260509204536 | 47 | 207 | 0.0 | 0.0 | 0.00 | 0.09 | 0.09 | 87 | 1014.8 |
| 20260509203034 | 47 | 207 | 0.0 | 2.0 | 0.00 | 0.09 | 0.09 | 86 | 1014.6 |
| 20260509201534 | 48 | 223 | 1.0 | 2.0 | 0.00 | 0.09 | 0.09 | 84 | 1014.7 |
| 20260509200037 | 48 | 223 | 0.0 | 0.0 | 0.00 | 0.09 | 0.09 | 84 | 1014.8 |
| 20260509194533 | 49 | 237 | 1.0 | 3.0 | 0.00 | 0.09 | 0.09 | 82 | 1014.7 |
| 20260509193032 | 50 | 291 | 2.0 | 3.0 | 0.00 | 0.09 | 0.09 | 80 | 1014.5 |
| 20260509191539 | 51 | 223 | 3.0 | 4.0 | 0.00 | 0.09 | 0.09 | 79 | 1014.5 |
| 20260509190032 | 52 | 227 | 0.0 | 0.0 | 0.00 | 0.09 | 0.09 | 78 | 1014.3 |
| 20260509184543 | 52 | 227 | 1.0 | 3.0 | 0.00 | 0.09 | 0.09 | 76 | 1014.2 |
| 20260509183043 | 54 | 331 | 0.0 | 2.0 | 0.00 | 0.09 | 0.09 | 75 | 1013.7 |
| 20260509181527 | 55 | 328 | 1.0 | 4.0 | 0.00 | 0.09 | 0.09 | 71 | 1013.6 |
| 20260509180027 | 57 | 289 | 3.0 | 5.0 | 0.00 | 0.09 | 0.09 | 69 | 1013.6 |
| 20260509174527 | 58 | 280 | 3.0 | 6.0 | 0.00 | 0.09 | 0.09 | 69 | 1013.7 |
| 20260509173027 | 60 | 355 | 1.0 | 7.0 | 0.00 | 0.09 | 0.09 | 69 | 1013.7 |
| 20260509171525 | 61 | 288 | 2.0 | 4.0 | 0.00 | 0.09 | 0.09 | 72 | 1013.7 |
| 20260509170124 | 61 | 33 | 2.0 | 4.0 | 0.00 | 0.09 | 0.09 | 72 | 1013.6 |
| 20260509164526 | 62 | 340 | 3.0 | 6.0 | 0.00 | 0.09 | 0.09 | 70 | 1013.6 |
| 20260509163034 | 63 | 15 | 4.0 | 6.0 | 0.00 | 0.09 | 0.09 | 64 | 1013.6 |
| 20260509161522 | 62 | 60 | 2.0 | 5.0 | 0.00 | 0.09 | 0.09 | 62 | 1014.2 |
| 20260509160120 | 61 | 58 | 2.0 | 4.0 | 0.01 | 0.09 | 0.09 | 72 | 1014.3 |
| 20260509154532 | 59 | 221 | 2.0 | 4.0 | 0.01 | 0.09 | 0.09 | 76 | 1014.6 |
| 20260509153043 | 57 | 267 | 3.0 | 6.0 | 0.02 | 0.09 | 0.09 | 84 | 1014.8 |
| 20260509151530 | 56 | 281 | 3.0 | 6.0 | 0.02 | 0.09 | 0.09 | 81 | 1015.0 |
| 20260509150029 | 56 | 287 | 1.0 | 6.0 | 0.01 | 0.09 | 0.09 | 77 | 1015.2 |
| 20260509144532 | 57 | 208 | 3.0 | 5.0 | 0.01 | 0.09 | 0.09 | 76 | 1015.5 |
| 20260509143029 | 58 | 174 | 3.0 | 6.0 | 0.00 | 0.08 | 0.08 | 76 | 1015.5 |
| 20260509141528 | 59 | 213 | 4.0 | 9.0 | 0.01 | 0.08 | 0.08 | 77 | 1015.4 |
| 20260509140128 | 60 | 297 | 2.0 | 4.0 | 0.01 | 0.08 | 0.08 | 79 | 1015.1 |
| 20260509134530 | 61 | 268 | 1.0 | 5.0 | 0.01 | 0.08 | 0.08 | 79 | 1014.8 |
| 20260509133029 | 62 | 304 | 1.0 | 5.0 | 0.01 | 0.08 | 0.08 | 76 | 1014.8 |
| 20260509131532 | 62 | 267 | 2.0 | 4.0 | 0.00 | 0.07 | 0.07 | 67 | 1014.9 |
| 20260509130127 | 62 | 336 | 0.0 | 5.0 | 0.00 | 0.07 | 0.07 | 65 | 1014.9 |
| 20260509124541 | 62 | 34 | 3.0 | 9.0 | 0.00 | 0.07 | 0.07 | 73 | 1015.0 |
| 20260509123035 | 61 | 31 | 4.0 | 9.0 | 0.00 | 0.07 | 0.07 | 72 | 1015.0 |
| 20260509121627 | 62 | 58 | 5.0 | 10.0 | 0.00 | 0.07 | 0.07 | 68 | 1015.3 |
| 20260509120057 | 63 | 35 | 6.0 | 12.0 | 0.00 | 0.07 | 0.07 | 61 | 1015.4 |
| 20260509114551 | 64 | 45 | 2.0 | 10.0 | 0.00 | 0.07 | 0.07 | 62 | 1015.3 |
| 20260509113052 | 62 | 34 | 4.0 | 10.0 | 0.02 | 0.07 | 0.07 | 76 | 1015.3 |
| 20260509111539 | 58 | 24 | 5.0 | 10.0 | 0.02 | 0.07 | 0.07 | 77 | 1015.5 |
| 20260509110038 | 57 | 10 | 4.0 | 6.0 | 0.02 | 0.07 | 0.07 | 79 | 1015.6 |
| 20260509104538 | 58 | 42 | 2.0 | 6.0 | 0.01 | 0.06 | 0.06 | 80 | 1015.6 |
| 20260509103044 | 60 | 45 | 6.0 | 11.0 | 0.00 | 0.06 | 0.06 | 70 | 1015.9 |
| 20260509101555 | 62 | 34 | 8.0 | 13.0 | 0.00 | 0.06 | 0.06 | 63 | 1015.7 |
| 20260509100035 | 62 | 16 | 9.0 | 15.0 | 0.00 | 0.06 | 0.06 | 65 | 1015.8 |
| 20260509094536 | 63 | 346 | 7.0 | 13.0 | 0.00 | 0.06 | 0.06 | 62 | 1015.9 |
| 20260509093031 | 63 | 67 | 5.0 | 11.0 | 0.00 | 0.06 | 0.06 | 63 | 1015.8 |
| 20260509091527 | 62 | 40 | 4.0 | 9.0 | 0.00 | 0.06 | 0.06 | 67 | 1015.9 |
| 20260509090033 | 61 | 62 | 4.0 | 9.0 | 0.00 | 0.06 | 0.06 | 69 | 1016.1 |
| 20260509084517 | 60 | 41 | 5.0 | 11.0 | 0.00 | 0.06 | 0.06 | 72 | 1016.2 |
| 20260509083029 | 58 | 63 | 5.0 | 9.0 | 0.00 | 0.06 | 0.06 | 74 | 1016.2 |
| 20260509081511 | 57 | 51 | 5.0 | 9.0 | 0.00 | 0.06 | 0.06 | 78 | 1016.3 |
| 20260509080007 | 55 | 36 | 4.0 | 9.0 | 0.00 | 0.06 | 0.06 | 80 | 1016.4 |
| 20260509074503 | 54 | 13 | 3.0 | 7.0 | 0.00 | 0.06 | 0.06 | 85 | 1016.6 |
| 20260509073100 | 52 | 67 | 3.0 | 5.0 | 0.00 | 0.06 | 0.06 | 89 | 1016.7 |
| 20260509071552 | 51 | 22 | 2.0 | 6.0 | 0.00 | 0.06 | 0.06 | 90 | 1016.9 |
| 20260509070049 | 50 | 119 | 2.0 | 6.0 | 0.00 | 0.06 | 0.06 | 92 | 1017.0 |
| 20260509064546 | 49 | 66 | 1.0 | 6.0 | 0.00 | 0.06 | 0.06 | 94 | 1017.0 |
| 20260509063044 | 48 | 51 | 1.0 | 4.0 | 0.00 | 0.06 | 0.06 | 95 | 1017.1 |
| 20260509061543 | 47 | 137 | 0.0 | 2.0 | 0.00 | 0.06 | 0.06 | 95 | 1017.4 |
| 20260509060043 | 45 | 61 | 1.0 | 3.0 | 0.00 | 0.06 | 0.06 | 94 | 1017.3 |
| 20260509054535 | 44 | 313 | 1.0 | 3.0 | 0.00 | 0.06 | 0.06 | 94 | 1017.3 |
| 20260509053056 | 44 | 84 | 0.0 | 0.0 | 0.00 | 0.06 | 0.06 | 94 | 1017.1 |
| 20260509051535 | 44 | 24 | 0.0 | 2.0 | 0.01 | 0.06 | 0.06 | 94 | 1017.3 |